Zurück zum Katalog

OPS 4682 DEB

AktivPO
NORAD 55120·DEBRIS·🇺🇸 United States

Gestartet Apr 3, 1965 von Vandenberg Space Force Base

Loading…

Nächste Überflüge (nächste 24 Stunden)

TLE

AktuellSource: Space-Track

Epoche: Sep 12, 2026, 07:50 UTC

1 55120U 65027HK  26255.32655007  .00000448  00000-0  15205-2 0  9992
2 55120  90.2587  19.2510 0025147 245.1532 114.6973 12.97235491335932

Verfolge OPS 4682 DEB in Echtzeit mit AllMySat

Download on the App Store